sat.trackr.live / text

‹ back to catalog

KUIPER-00164

NORAD 67134 · 2025-301B

PAYLOAD ACTIVE UNKNOWN

§ Identity

Operator
Country
US
Launch date
2025-12-16
Launch site
AFETR
Launch vehicle
Mass (kg)
RCS (m²)

External: N2YO · Heavens-Above · Gunter

§ Orbital elements

Epoch: 2026-05-25T03:26:32.930880Z

Period
97.53 min
Inclination
51.9025°
Eccentricity
0.0001158
Mean motion
14.76496920 rev/d
Perigee alt
639.6 km
Apogee alt
641.2 km
Semi-major
7,018.5 km
B*
3.0609e-4
RAAN
88.7381°
Arg perigee
136.9846°
Mean anomaly
223.1206°
Rev number
2,521

§ Raw data

KUIPER-001641 67134U 25301B   26145.14343670  .00001937  00000+0  30609-3 0  99982 67134  51.9025  88.7381 0001158 136.9846 223.1206 14.76496920 25216

JSON: /api/v1/satellites/67134 · /tle

For live sub-satellite position, see the globe view (requires WebGL).

§ Visibility from observer

Set your observer location to see the next 7 days of passes ≥ 10°. The values pass through the URL so the page stays shareable.

No JS? Fill the form by hand. The geolocation button needs JavaScript.